Weather History for KNMM - March, 2014

Change the Weather History Date:

Tuesday, March 4, 2014

  Actual Average Record
Temperature  
Mean Temperature 32 °F -  
Max Temperature 36 °F 62 °F 81 °F (2015)
Min Temperature 28 °F 41 °F 18 °F (2002)
Degree Days  
Heating Degree Days 33    
Moisture  
Dew Point 26 °F    
Average Humidity 77    
Maximum Humidity 89    
Minimum Humidity 70    
Precipitation  
Precipitation 0.00 in - - ()
Sea Level Pressure  
Sea Level Pressure 30.22 in    
Wind  
Wind Speed 6 mph (NNE)    
Max Wind Speed 9 mph    
Max Gust Speed -    
Visibility 10 miles    
Events      
Averages and records for this station are not official NWS values.
T = Trace of Precipitation, MM = Missing Value Source: NWS Daily Summary

Daily Weather History Graph

Daily Weather History Graph

Search for Another Location

Airport or City:

Trip Planner

Search our weather history database for the weather conditions in past years. The results will help you decide how hot, cold, wet, or windy it might be!

Date:

Astronomy

Mar. 04, 2014 Rise Set
Actual Time 6:18 AM CST 5:53 PM CST
Civil Twilight 5:53 AM CST 6:18 PM CST
Nautical Twilight 5:25 AM CST 6:47 PM CST
Astronomical Twilight 4:56 AM CST 7:15 PM CST
Moon 8:18 AM CST (3/4) 9:45 PM CST (3/4)
Length of Visible Light 12h 24m
Length of Day
11h 35m
Waxing Crescent, 15% of the Moon is Illuminated
Mar 4
Waxing Crescent
Mar 8
First Quarter
Mar 16
Full
Mar 23
Last Quarter
Mar 30
New

Hourly Weather History & Observations

Time (CST) Temp. Windchill Dew Point Humidity Pressure Visibility Wind Dir Wind Speed Gust Speed Precip Events Conditions
12:56 AM 28.9 °F 21.1 °F 21.9 °F 75% 30.27 in 10.0 mi North 8.1 mph - N/A   Overcast
1:46 AM 28.9 °F 21.1 °F 21.9 °F 75% 30.22 in 10.0 mi North 8.1 mph - N/A   Overcast
1:56 AM 28.9 °F 20.4 °F 21.9 °F 75% 30.26 in 10.0 mi North 9.2 mph - N/A   Overcast
2:56 AM 28.9 °F 21.9 °F 23.0 °F 78% 30.25 in 10.0 mi Variable 6.9 mph - N/A   Overcast
3:56 AM 28.9 °F 21.1 °F 23.0 °F 78% 30.26 in 10.0 mi North 8.1 mph - N/A   Overcast
4:56 AM 28.9 °F 20.4 °F 23.0 °F 78% 30.24 in 10.0 mi North 9.2 mph - N/A   Overcast
5:56 AM 28.9 °F 21.1 °F 23.0 °F 78% 30.24 in 10.0 mi NNE 8.1 mph - N/A   Overcast
6:03 AM 28.9 °F 21.9 °F 23.0 °F 78% 30.20 in 10.0 mi NNE 6.9 mph - N/A   Overcast
6:56 AM 28.9 °F 21.9 °F 23.0 °F 78% 30.24 in 10.0 mi NE 6.9 mph - N/A   Overcast
7:56 AM 28.9 °F 23.9 °F 23.0 °F 78% 30.27 in 10.0 mi Variable 4.6 mph - N/A   Overcast
8:56 AM 30.9 °F 27.5 °F 24.1 °F 76% 30.27 in 10.0 mi NE 3.5 mph - N/A   Overcast
9:56 AM 32.0 °F 28.7 °F 25.0 °F 75% 30.27 in 10.0 mi East 3.5 mph - N/A   Overcast
10:56 AM 33.1 °F - 26.1 °F 75% 30.27 in 10.0 mi Calm Calm - N/A   Overcast
11:04 AM 33.1 °F 30.0 °F 26.1 °F 75% 30.22 in 10.0 mi East 3.5 mph - N/A   Overcast
11:56 AM 33.1 °F - 26.1 °F 75% 30.26 in 10.0 mi Calm Calm - N/A   Overcast
12:56 PM 34.0 °F 31.0 °F 26.1 °F 73% 30.24 in 10.0 mi West 3.5 mph - N/A   Overcast
1:56 PM 35.1 °F 31.0 °F 27.0 °F 72% 30.22 in 10.0 mi NNE 4.6 mph - N/A   Overcast
2:20 PM 36.0 °F 32.1 °F 27.0 °F 70% 30.16 in 10.0 mi ENE 4.6 mph - N/A   Overcast
2:39 PM 35.1 °F 30.1 °F 27.0 °F 72% 30.15 in 10.0 mi NE 5.8 mph - N/A   Overcast
2:56 PM 35.1 °F 29.3 °F 28.0 °F 76% 30.19 in 10.0 mi ENE 6.9 mph - N/A   Overcast
3:56 PM 36.0 °F 31.1 °F 28.0 °F 73% 30.18 in 10.0 mi NNE 5.8 mph - N/A   Overcast
4:56 PM 36.0 °F 31.1 °F 28.0 °F 73% 30.19 in 10.0 mi North 5.8 mph - N/A   Overcast
5:51 PM 35.6 °F 31.7 °F 28.4 °F 75% 30.15 in 10.0 mi NNE 4.6 mph - N/A   Overcast
6:56 PM 35.1 °F 31.0 °F 28.9 °F 78% 30.21 in 10.0 mi North 4.6 mph - N/A   Overcast
7:56 PM 35.1 °F - 28.9 °F 78% 30.19 in 10.0 mi Calm Calm - N/A   Overcast
8:56 PM 34.0 °F 31.0 °F 30.0 °F 85% 30.19 in 9.0 mi ENE 3.5 mph - N/A   Mostly Cloudy
9:56 PM 34.0 °F 31.0 °F 30.0 °F 85% 30.23 in 8.0 mi West 3.5 mph - N/A   Mostly Cloudy
10:56 PM 33.1 °F 30.0 °F 30.0 °F 89% 30.19 in 7.0 mi North 3.5 mph - N/A   Mostly Cloudy
11:56 PM 33.1 °F 30.0 °F 30.0 °F 89% 30.16 in 7.0 mi East 3.5 mph - N/A   Clear